Regional Weather Roundup
Issued by NWS Nashville, TN

Home | Current Version | Previous Version | Text Only | Print | Product List | Glossary On
Versions: 1 2 3 4 5 6 7 8 9 10 11 12 13 14 15 16 17 18 19 20 21 22 23 24 25 26 27 28 29 30 31 32 33 34 35 36 37 38 39 40 41 42 43 44 45 46 47 48 49 50
485
ASUS44 KOHX 290410
RWROHX
MIDDLE TENNESSEE HOURLY WEATHER ROUNDUP
NATIONAL WEATHER SERVICE NASHVILLE TN
1100 PM CDT THU APR 28 2016

NOTE: "FAIR" INDICATES FEW OR NO CLOUDS BELOW 12,000 FEET WITH
NO SIGNIFICANT WEATHER AND/OR OBSTRUCTIONS TO VISIBILITY.

* THESE REPORTS ARE NOT UNDER NWS QUALITY CONTROL AND MAY NOT
  REPORT WEATHER SUCH AS PRECIPITATION AND FOG.


TNZ005>011-023>034-057-059-062>066-078-080-290500
...NORTHERN MIDDLE TENNESSEE...

CITY           SKY/WX    TMP DP  RH WIND       PRES   REMARKS
CLARKSVILLE    CLEAR     63  52  67 W5        29.99R
CROSSVILLE     CLEAR     65  52  62 W6        30.03R
NASHVILLE      CLEAR     64  53  67 CALM      29.99R
SMYRNA         CLEAR     62  55  77 N3        30.00R
SPARTA         CLEAR     55  54  94 CALM      29.99S
$$
TNZ056-058-060-061-075>077-079-093>097-290500
...SOUTHERN MIDDLE TENNESSEE...

CITY           SKY/WX    TMP DP  RH WIND       PRES   REMARKS
COLUMBIA       CLEAR    N/A N/A N/A CALM      29.98F
FAYETTEVILLE   CLEAR     68  55  64 N5        30.00S
MCMINNVILLE    CLEAR     61  54  77 SW7G133   30.01R
SHELBYVILLE    CLEAR     61  57  88 E3        30.01S
TULLAHOMA      CLEAR     57  57 100 CALM      30.01F
WINCHESTER     CLEAR     59  57  94 CALM      30.00F
$$


...KEY TO REMARKS...
VSB - VISIBILITY IN MILES
WCI - WIND CHILL INDEX
HX  - HEAT INDEX





USA.gov is the U.S. government's official web portal to all federal, state and local government web resources and services.